Location: Consuma
(43.7833°N, 11.5833°E)
Time: 08:50:23
(UTC+00:00)

STARLINK-1117 - Pass Details

Date: 17 February 2020
Orbit: 548 x 551 km, 53.0° (Epoch: 04 April)

Event Time Altitude Azimuth Distance (km) Brightness Sun altitude
Exits shadow 03:51:45 49° 127° (SE) 718 4.3 -25.7°
Drops below altitude 10° 03:55:34 10° 64° (ENE) 1,829 7.2 -25.0°
Enters shadow 04:53:51 -66° 239° (WSW) 12,273 10.4 -14.5°
